Regional Weather Roundup
Issued by NWS Newport/Morehead, NC

Current Version | Previous Version | Text Only | Print | Product List | Glossary Off
Versions: 1 2 3 4 5 6 7 8 9 10 11 12 13 14 15 16 17 18 19 20 21 22 23 24 25 26 27 28 29 30 31 32 33 34 35 36 37 38 39 40 41 42 43 44 45 46 47 48 49 50
774 ASUS42 KMHX 292214 RWRMHX WEATHER ROUNDUP FOR EASTERN NORTH CAROLINA NATIONAL WEATHER SERVICE NEWPORT/MOREHEAD CITY NC 600 PM EDT MON MAY 29 2017 NOTE: "FAIR" INDICATES FEW OR NO CLOUDS BELOW 12,000 FEET WITH NO SIGNIFICANT WEATHER AND/OR OBSTRUCTIONS TO VISIBILITY NCZ015>017-031-032-045>047-102-103-292300- NORTH COAST CITY SKY/WX TMP DP RH WIND PRES REMARKS EDENTON SUNNY 87 66 49 CALM 29.95S ELIZABETH CITY SUNNY 80 72 76 E12 29.96R KITTY HAWK CLOUDY 73 66 79 E3 29.97R MANTEO CLOUDY 76 68 75 SE8 29.98R $$ NCZ045>047-081-094-103-104-292300- CENTRAL COAST CITY SKY/WX TMP DP RH WIND PRES REMARKS FRISCO CLOUDY 81 71 71 SW12 29.97R $$ NCZ095-097-098-100-101-292300- SOUTHERN COAST CITY SKY/WX TMP DP RH WIND PRES REMARKS BEAUFORT PTSUNNY 81 70 69 SW10 29.97R CEDAR ISLAND NOT AVBL JACKSONVILLE NOT AVBL PINEY ISLAND CLOUDY N/A N/A N/A S10 29.96R WILMINGTON MOSUNNY 87 69 54 SW8 29.96R $$ NCZ011>013-027>030-043-044-078>080-089-090>093-098-292300- COASTAL PLAIN CITY SKY/WX TMP DP RH WIND PRES REMARKS AHOSKIE NOT AVBL CLINTON MOSUNNY 87 69 54 CALM 29.96S ELIZABETHTOWN MOSUNNY 88 67 49 SW5 29.96S GOLDSBORO SUNNY 89 63 42 W9 29.94S GREENVILLE MOSUNNY 88 63 42 NW3 29.97S HAVELOCK NOT AVBL KENANSVILLE PTSUNNY 88 64 45 W3 29.95S KINSTON MOSUNNY 88 61 40 W10 29.96R NEW BERN CLOUDY 89 65 44 W5 29.95F RICHLANDS MOSUNNY 89 67 47 SW7 29.95S ROCKY MOUNT MOSUNNY 86 64 47 W5 29.95S WASHINGTON MOSUNNY 86 67 52 CALM 29.95S WHITEVILLE SUNNY 88 66 47 SW6 29.96R $$ AMZ130-135-150-152-154-156-158-170-250-252-270-ANZ085-086-088-633-658-670-292300- MARINE OBSERVATIONS STATION/POSITION TIME TEMP WIND PRES WAVE SWELL AIR SEA DIR/SP/G HT/PER HT/PER (UTC) (F) (DEG/KT/KT) (MB) (FT/S) (FT/S) CHESAPEAKE LIGHT NOT AVBL 64 E VA BEACH 2150 65 66 70/ 8/ 10 1015.7 3/ 7 3/ 7 DUCK 2148 72 71 100/ 10/ 11 1014.7 2 E DUCK 2200 70 N/A 2/ 8 OREGON INLET 2148 60/ 9/ 12 1015.0 13E OREGON INLT 2148 68 N/A 3/10 3/10 HATTERAS CG 2148 80 77 210/ 10/ 14 1014.7 DIAMOND BUOY 2150 79 78 210/ 10/ 14 1014.9 2/ 8 2/ 8 CAPE LOOKOUT 2200 79 220/ 7/ 10 1014.6 BEAUFORT LAB 2148 80 78 200/ 8/ 11 1014.3 30 SE NEW RVR IN 2108 79 78 220/ 10/ 14 1015.0 30 SE NEW RVR IN 2143 78 N/A 3/ 6 27 SE WRIGHTSVLE 2108 77 78 210/ 10/ 14 1014.2 5 SE WRIGHTSVLE 2108 78 77 180/ 8/ 14 1014.7 225 S CAPE HAT 2150 78 77 230/ 12/ 14 1016.5 3/ 6 2/ 6 41 SE CHARLESTON 2150 78 78 210/ 10/ 12 1015.3 2/ 4 2/ 8 $$

USA.gov is the U.S. government's official web portal to all federal, state and local government web resources and services.